Theta_e
314 314 313 314 314 315 316 316 316 316 316 316 316 316 316 317 316 307 300 308 312 331 336 329 323 322 318 313 314 310 300 297 299 300 302 305 304 309 312 308 307 310 309 312 314
312 311 312 313 313 313 313 314 315 316 316 316 316 316 316 317 308 304 313 325 329 336 324 319 317 318 309 309 310 307 299 300 305 305 304 305 306 309 308 310 309 310 311 313 313
313 313 312 311 311 311 313 313 313 314 316 316 316 316 316 315 299 296 323 323 326 331 315 319 319 314 307 308 309 306 303 308 307 309 307 308 308 311 308 307 311 308 311 311 311
314 313 313 313 313 311 310 311 313 313 314 314 315 315 316 308 286 299 338 334 339 324 309 314 315 308 304 303 310 302 308 310 310 310 308 308 311 310 312 311 315 315 314 311 309
312 313 313 313 313 312 312 311 311 312 312 313 313 314 309 298 295 302 324 316 319 317 307 305 310 308 303 305 307 303 307 309 311 309 309 311 309 310 310 316 317 315 312 310 310
312 312 312 312 312 312 312 313 312 311 310 312 312 313 304 293 305 303 308 303 303 310 310 305 304 308 302 303 303 305 307 307 307 308 310 309 309 310 313 317 313 310 310 309 310
312 312 312 311 311 312 313 313 312 312 311 310 312 308 300 297 309 310 308 302 301 302 302 310 307 303 300 296 300 299 296 299 301 303 303 307 302 304 311 312 308 309 309 309 310
312 312 311 311 311 311 311 312 312 312 311 312 311 305 293 307 309 307 308 306 307 306 301 307 313 304 298 298 298 295 294 291 298 302 303 303 295 304 308 306 306 307 308 308 308
311 311 311 310 311 311 311 311 311 312 312 311 304 300 291 308 303 307 307 302 303 302 300 306 307 301 298 295 292 291 289 290 293 301 301 300 295 303 305 305 305 307 308 308 308
311 311 311 310 310 311 311 310 310 307 307 306 304 294 297 294 304 303 306 305 300 297 296 296 297 294 292 290 286 288 288 290 291 297 298 295 296 301 304 303 304 305 306 306 307
310 311 311 310 310 310 307 297 294 293 297 293 294 294 296 303 306 303 302 301 300 294 287 293 291 290 292 295 295 293 291 290 293 299 297 295 296 299 303 302 301 303 304 305 305
310 309 309 310 310 310 304 291 296 295 289 297 297 298 301 302 296 299 302 295 293 290 292 291 288 294 297 296 295 294 292 291 295 300 297 296 295 299 301 301 301 304 304 305 305
310 309 309 309 310 299 293 296 300 300 289 293 297 296 297 299 295 295 301 296 292 289 290 288 291 297 296 295 293 293 292 292 293 298 296 294 293 296 302 302 303 304 305 305 305
310 310 310 309 299 295 296 298 301 302 284 287 292 295 297 296 292 300 303 298 293 288 290 289 294 293 293 294 295 290 297 297 296 292 286 294 284 294 297 299 301 303 302 303 305
310 310 310 308 300 296 298 301 301 296 272 288 293 302 298 293 295 295 301 299 293 291 290 288 290 290 290 294 298 294 300 297 295 290 287 289 286 291 295 296 299 302 303 302 305
309 309 308 304 302 300 301 300 295 281 273 286 292 290 289 295 295 298 295 298 299 292 292 290 296 294 293 297 300 301 295 293 292 288 283 289 289 289 292 298 299 301 303 306 306
308 308 306 305 295 298 299 293 281 275 287 284 286 289 289 288 290 292 293 288 289 287 286 290 290 293 296 292 296 296 289 281 279 279 281 291 288 292 296 299 301 301 302 305 306
307 307 302 303 299 301 298 286 275 281 282 289 288 288 285 288 288 289 289 288 291 290 288 285 282 291 296 293 291 293 290 282 277 278 284 291 286 292 300 303 303 304 303 306 306
305 297 294 297 300 302 291 278 276 283 287 285 286 283 284 287 286 287 286 289 291 293 285 286 286 294 296 297 297 291 288 291 285 287 284 286 291 297 300 302 304 303 305 304 306
298 294 292 300 302 298 287 280 282 288 288 287 281 285 281 283 283 284 284 292 291 293 293 289 284 293 295 296 297 293 295 286 286 280 279 285 288 290 296 299 303 303 303 304 306
290 287 293 300 302 292 282 283 286 290 290 285 284 283 283 283 284 283 284 289 291 291 294 290 286 288 293 291 289 287 288 286 288 285 281 280 286 295 297 300 302 303 303 304 306
289 278 293 301 286 287 284 287 291 289 291 289 288 285 284 285 285 284 283 286 293 292 286 290 286 284 288 292 296 294 290 290 286 283 285 286 287 298 299 299 302 303 305 305 307
288 287 294 299 281 281 286 286 289 287 288 287 286 288 288 286 282 286 287 294 292 291 288 291 285 281 283 288 292 291 291 290 288 287 285 283 285 300 302 302 302 303 305 306 307
289 280 284 290 287 285 282 283 283 290 288 288 286 288 286 285 288 285 286 290 292 292 297 295 285 284 282 285 289 288 291 292 287 282 286 290 290 297 302 300 302 303 304 306 307
285 281 285 279 280 284 281 283 282 283 289 289 285 286 285 283 285 286 289 290 292 294 294 289 281 286 287 290 291 290 291 291 289 290 287 290 291 295 300 302 303 304 305 306 307
285 285 291 287 285 281 282 281 283 285 286 285 284 287 287 284 286 284 287 289 288 291 291 290 281 285 284 291 292 290 291 292 292 292 292 292 292 298 302 305 304 305 306 307 308
289 291 291 287 283 283 284 283 284 286 288 290 288 286 284 287 291 292 292 293 292 290 288 287 283 281 279 286 289 285 291 291 292 294 293 290 296 298 302 305 305 305 307 308 309
Wind_Speed
16 16 15 15 15 17 17 17 16 16 17 17 17 18 19 18 18 3 9 12 9 9 4 9 7 5 1 4 4 5 1 6 8 9 10 3 1 1 3 4 3 5 5 6 3
17 17 18 17 16 16 16 17 17 17 16 16 16 17 18 18 4 9 12 13 16 13 8 8 8 9 4 5 4 6 7 11 8 7 7 1 1 5 3 7 9 8 8 3 6
16 15 15 16 18 18 18 18 17 17 17 15 15 17 18 15 5 10 8 25 17 15 7 6 9 9 5 5 7 7 14 19 9 8 1 6 9 2 4 10 12 8 12 3 6
17 17 17 16 16 17 17 18 18 18 17 17 16 16 16 3 10 2 11 13 6 13 8 9 8 10 7 10 7 4 12 19 17 9 4 8 5 12 13 18 17 15 9 5 9
18 19 18 17 17 18 18 18 18 17 16 15 14 13 6 4 11 6 18 11 8 4 7 11 11 9 11 7 10 8 12 8 13 10 9 8 12 15 18 25 14 11 9 12 12
17 17 18 18 18 19 18 16 15 16 16 15 13 12 5 19 8 8 12 6 8 5 4 5 9 5 5 7 7 5 13 14 6 12 14 17 14 7 20 22 15 11 15 11 12
17 17 18 19 19 20 19 18 17 17 18 17 14 9 15 26 7 12 18 6 7 6 7 9 9 6 4 2 5 4 5 7 8 9 7 12 13 18 26 13 11 16 15 13 13
19 18 19 20 20 21 22 21 21 22 22 17 13 9 13 6 9 16 18 9 12 14 3 7 10 8 3 2 3 4 4 3 5 6 7 11 13 20 16 11 16 17 14 10 13
20 19 20 21 21 21 21 22 25 22 14 8 6 7 14 8 7 14 17 12 4 10 6 6 6 7 3 10 9 2 10 8 6 8 5 9 9 13 7 5 12 15 15 13 14
20 18 18 20 21 21 22 24 18 3 6 7 4 2 7 6 6 6 7 19 7 7 6 6 5 6 7 8 18 9 5 6 9 4 6 10 15 19 20 10 17 15 13 11 12
22 20 19 19 19 18 14 7 5 2 2 5 8 8 14 8 9 6 2 11 7 6 9 9 8 24 22 20 8 6 12 14 1 3 5 9 8 16 18 9 12 13 14 15 10
22 21 21 19 19 19 5 0 3 0 10 11 17 22 24 14 13 15 10 7 9 13 13 7 31 21 13 15 17 12 17 13 7 5 6 11 14 14 17 14 9 15 16 12 6
21 21 20 20 20 4 0 4 6 7 5 10 12 8 10 12 18 23 6 6 7 13 25 24 24 14 16 16 17 19 21 17 16 2 5 8 14 14 18 9 7 10 12 9 7
20 19 18 19 5 2 5 2 4 4 4 9 4 9 6 6 10 27 11 9 7 19 16 19 21 23 18 19 16 20 17 17 11 4 6 5 8 12 11 14 8 11 8 9 4
21 20 17 10 7 5 4 6 6 1 5 3 4 3 4 8 8 7 26 12 9 9 10 13 16 26 23 25 22 15 13 14 9 7 2 4 5 7 4 12 12 10 11 8 5
20 19 17 6 2 6 5 6 2 2 10 5 4 11 10 4 12 8 12 17 6 7 8 9 8 19 11 13 19 4 3 3 2 4 7 10 7 6 6 16 6 6 4 1 7
22 21 15 6 4 4 2 2 2 6 5 1 6 14 15 16 8 9 8 20 15 14 13 5 9 2 11 6 10 11 9 1 3 2 6 7 9 13 11 10 9 9 8 6 3
22 18 3 5 1 4 1 1 7 4 10 11 11 12 5 13 10 20 10 5 19 6 9 9 4 13 7 11 12 18 14 9 8 4 6 9 9 9 21 17 12 10 3 8 9
17 3 3 3 4 2 1 3 4 3 4 9 10 5 3 9 5 12 11 7 1 17 6 9 9 5 18 7 18 11 17 11 5 2 2 5 7 6 9 9 6 5 7 8 9
6 4 4 5 5 3 0 4 4 5 7 5 4 4 5 9 8 7 10 16 14 14 8 5 3 7 13 10 19 15 11 9 7 7 5 6 5 7 4 5 3 2 6 7 7
3 4 3 4 2 2 2 3 6 9 8 4 2 4 6 9 6 3 4 15 17 20 11 5 2 2 12 17 14 5 11 3 6 6 6 1 8 8 7 7 9 9 8 9 11
3 3 4 3 3 1 3 6 9 8 5 6 5 9 9 10 7 3 5 7 17 19 12 4 3 4 10 7 17 14 12 12 11 13 4 4 7 5 8 7 4 8 9 8 8
5 3 4 2 3 3 4 7 5 4 4 3 5 5 3 3 5 8 2 4 10 12 12 10 5 3 2 2 7 23 15 9 6 5 13 4 7 3 4 5 3 8 8 9 9
2 5 5 3 1 4 5 5 5 6 8 4 5 5 3 5 6 7 6 4 7 8 15 10 4 3 6 1 5 17 20 19 6 4 8 20 3 6 5 7 4 8 8 9 10
3 3 1 4 3 5 3 4 5 7 5 6 4 3 5 2 8 2 8 8 2 3 3 4 5 3 11 12 9 3 20 19 19 18 7 5 8 8 8 11 10 7 9 11 11
1 2 2 5 5 6 4 4 4 7 7 5 4 9 9 6 7 9 5 3 1 4 3 6 5 7 6 12 9 10 6 20 21 15 18 4 9 8 3 8 7 11 13 12 13
2 3 3 4 4 3 2 3 8 12 8 7 10 11 12 12 3 8 10 6 4 3 5 3 2 6 5 9 7 9 19 7 10 14 12 11 17 3 2 6 9 10 13 15 15
Wind_Direction
347 344 337 335 335 335 337 332 327 326 327 333 340 338 335 332 323 310 250 227 199 166 162 134 128 150 146 193 149 112 103 242 233 171 243 185 346 228 158 244 285 222 225 245 80
348 342 338 337 333 335 332 330 330 324 319 324 329 330 330 331 285 234 236 251 224 167 149 161 147 157 178 216 194 157 178 231 209 188 242 215 145 349 312 319 271 278 263 304 144
344 343 343 337 333 332 330 329 324 325 324 323 328 325 329 332 303 250 246 228 234 185 171 157 141 142 193 171 209 189 220 231 268 234 233 285 297 183 291 289 272 266 292 243 188
340 336 335 334 334 330 323 321 323 321 321 327 325 323 324 308 238 167 90 53 290 193 183 156 158 150 198 212 203 194 229 233 253 261 277 260 315 294 283 259 268 279 261 226 197
341 341 338 331 327 325 324 323 317 316 314 308 308 319 343 277 242 287 320 12 55 117 205 178 169 168 184 199 218 234 239 241 252 276 243 267 256 263 288 279 280 270 268 234 215
335 335 334 330 327 322 316 308 306 306 305 303 305 307 271 252 243 310 0 333 191 180 195 202 199 193 203 212 196 206 238 248 268 270 275 269 276 275 266 270 279 277 277 247 223
335 333 330 329 326 323 319 312 305 302 299 297 299 294 256 245 269 296 306 278 324 215 207 206 253 190 194 341 221 214 226 262 230 240 249 275 268 249 262 282 266 270 265 267 231
333 333 332 328 325 323 321 314 308 294 290 277 276 276 256 247 243 256 257 274 241 269 283 241 217 248 215 301 4 202 168 232 232 216 245 167 261 267 273 259 264 269 266 255 251
331 331 331 329 325 324 321 313 304 298 288 249 228 228 271 307 256 246 237 230 273 190 229 268 187 193 138 219 274 268 253 238 297 221 236 177 273 262 283 277 272 274 274 269 267
329 328 327 325 325 326 323 315 303 77 97 137 232 247 256 235 305 242 187 199 197 147 154 177 213 190 181 166 213 211 228 227 225 241 236 261 265 278 276 260 256 264 265 262 259
330 329 325 324 325 324 330 340 19 353 339 217 194 251 293 304 334 319 166 152 219 151 166 175 197 215 204 208 209 210 232 243 271 218 246 247 268 269 275 250 261 270 267 264 258
332 330 328 326 325 325 320 338 24 121 299 249 245 236 247 262 286 277 154 150 185 195 149 165 226 218 200 202 208 208 230 245 266 206 235 270 272 266 282 267 239 264 278 272 242
328 326 328 327 322 24 131 252 346 334 258 277 225 230 230 218 229 257 223 179 173 186 189 198 222 197 196 195 200 215 220 233 239 348 268 314 289 288 281 268 264 254 249 263 255
318 319 322 330 11 280 281 319 321 288 309 269 214 247 197 212 237 235 209 191 195 194 193 228 225 197 194 205 194 224 213 235 253 217 240 128 285 292 300 297 261 288 289 271 189
317 319 320 329 295 293 276 320 326 114 312 245 182 184 239 185 312 245 205 224 201 171 162 215 181 212 214 205 189 235 178 210 211 224 225 244 289 260 266 285 279 280 280 288 162
319 319 322 303 191 247 325 310 77 85 242 281 77 343 338 211 259 297 169 233 183 189 242 211 198 198 190 195 200 180 86 69 65 101 246 245 198 247 217 235 262 263 300 360 133
322 316 311 282 260 145 328 26 152 208 317 102 352 350 335 356 354 351 236 193 194 189 203 175 233 190 179 156 175 182 107 319 322 274 224 203 200 239 260 242 228 256 270 154 150
326 318 309 266 298 243 228 74 232 276 232 346 352 316 339 17 338 345 334 203 230 261 180 174 201 197 175 188 174 186 164 164 184 208 243 171 212 245 233 245 246 253 186 145 141
327 331 309 269 206 193 171 212 233 315 17 344 336 324 341 14 5 342 334 342 322 225 253 182 227 167 180 164 163 180 206 169 119 196 96 231 265 293 218 211 208 159 153 160 151
328 335 302 305 146 162 359 253 265 332 330 327 308 312 325 338 321 14 312 35 354 3 321 260 179 187 199 167 195 187 146 172 199 190 216 280 278 225 181 236 272 206 187 149 149
39 16 273 360 200 77 268 279 282 283 305 299 298 309 315 328 296 16 263 304 356 350 340 354 160 281 147 200 164 132 184 122 159 152 159 199 262 224 204 201 197 212 173 171 166
8 31 309 87 61 350 315 307 306 296 305 265 269 242 248 294 310 251 247 230 335 327 339 318 311 224 202 159 191 198 177 176 198 191 186 164 273 239 226 223 222 190 155 156 160
347 291 307 6 37 341 287 285 273 290 277 320 299 262 311 299 316 281 257 138 290 345 349 336 304 141 6 141 189 199 198 163 109 113 205 144 249 322 299 265 212 180 154 150 147
4 344 325 18 285 349 323 292 301 296 293 271 251 267 277 293 292 291 252 279 169 327 322 318 272 251 206 281 120 204 203 203 137 133 162 219 213 242 264 242 197 166 146 144 154
31 289 267 308 328 315 246 276 301 333 336 302 303 21 321 302 304 314 296 271 209 68 353 346 276 282 290 275 300 320 197 202 204 215 182 189 212 239 230 219 197 148 128 141 162
37 6 275 286 314 335 310 289 325 321 316 304 292 321 319 261 256 287 312 274 300 123 113 311 283 342 302 283 270 269 255 212 206 217 226 165 249 215 326 106 171 158 155 168 180
297 280 275 279 299 280 247 286 300 311 285 227 292 310 302 285 344 296 275 219 219 215 188 185 313 357 294 339 308 257 236 217 222 213 177 194 227 139 226 201 201 164 174 177 186